Location: ????????
(48.4751°N, 37.6926°E)
Time: 12:32:57
(UTC+00:00)

YAOGAN 1 - Pass Details

Date: 20 January 2021
Orbit: 618 x 620 km, 97.9° (Epoch: 27 February)

Event Time Altitude Azimuth Distance (km) Brightness Sun altitude
Rises 16:51:58 0° 191° (SSW) 2,885 6.1 -26.6°
Reaches altitude 10° 16:54:21 10° 202° (SSW) 1,985 5.4 -26.9°
Maximum altitude 16:58:10 30° 264° (W) 1,118 4.4 -27.6°
Drops below altitude 10° 17:02:01 10° 327° (NNW) 1,999 5.5 -28.2°
Sets 17:04:26 0° 338° (NNW) 2,910 6.3 -28.6°
